Wind_Speed
26 27 27 27 26 25 24 24 24 24 24 23 23 23 24 24 24 25 25 25 26 26 26 25 25 25 25 25 25 26 26 25 23 22 21 20 19 18 18 18 18 18
24 25 27 27 28 28 28 28 28 28 28 28 27 27 27 27 27 28 28 28 29 29 29 29 28 28 28 27 27 28 28 27 27 26 25 24 22 21 20 20 20 20
26 27 27 28 30 31 31 32 32 32 32 32 32 32 32 32 32 32 32 32 32 33 33 33 32 32 31 30 30 30 30 30 30 29 29 28 27 25 24 23 22 22
30 31 31 31 32 33 34 34 34 34 34 35 35 35 36 36 36 36 35 35 35 35 36 36 36 35 35 34 34 33 33 32 32 32 32 31 31 30 29 28 27 26
34 35 35 36 36 37 37 37 37 38 38 38 38 38 38 38 39 39 39 38 38 38 38 38 38 38 38 37 37 36 36 35 35 34 34 34 34 33 32 32 31 30
36 36 37 37 37 38 38 39 39 39 39 39 39 39 39 39 39 40 40 40 40 40 40 40 40 40 40 39 39 38 38 38 38 37 37 36 36 36 35 35 34 34
35 35 36 36 37 38 38 39 39 40 40 40 41 41 41 41 42 42 42 42 42 42 42 42 42 42 41 41 41 41 40 40 40 40 40 39 38 38 38 37 37 37
35 36 37 38 39 40 40 41 41 42 42 42 43 43 44 44 44 45 45 45 45 44 44 44 44 44 44 44 43 42 42 42 42 42 42 41 41 41 40 40 40 40
38 39 40 40 41 41 42 42 43 43 43 43 44 44 44 44 44 45 45 45 45 45 45 45 45 46 46 46 46 46 45 44 43 43 43 43 43 43 43 43 43 43
40 41 41 42 42 42 42 43 43 43 43 42 42 42 42 42 42 42 42 42 42 42 43 43 44 44 44 45 46 47 48 47 47 46 45 45 45 44 44 44 45 45
41 41 41 41 41 41 42 42 41 41 41 40 40 40 39 39 39 39 39 39 39 39 39 39 39 39 40 41 42 43 44 46 48 48 48 48 47 46 46 45 45 46
40 40 40 40 40 40 40 40 39 38 37 37 36 36 36 36 36 37 37 38 38 38 38 37 37 36 36 37 37 38 39 41 43 45 47 49 49 49 48 47 46 46
38 38 38 38 38 38 37 36 35 34 32 32 32 32 33 34 35 36 37 38 39 39 39 38 37 36 36 35 35 35 36 36 37 39 42 45 47 49 49 49 49 48
36 36 36 35 35 34 33 31 30 29 29 29 30 31 32 34 35 37 38 39 40 40 41 40 39 38 38 37 37 37 36 35 35 35 36 39 42 45 47 48 49 50
34 34 33 33 32 30 29 27 26 27 28 29 31 32 34 35 36 37 38 39 40 41 42 43 43 42 41 41 40 39 38 36 34 33 33 34 36 39 42 44 46 48
32 31 30 30 29 27 26 26 26 28 29 30 31 32 33 34 35 35 36 37 38 39 40 41 43 43 43 43 41 40 38 37 34 32 31 31 32 34 37 39 42 44
30 28 28 28 27 27 27 27 28 29 29 30 30 31 31 31 32 32 33 33 34 35 36 38 39 40 41 41 40 38 37 35 33 31 30 30 30 31 33 35 37 40
29 28 28 28 27 27 28 29 29 29 29 28 28 29 29 29 29 29 29 30 31 32 33 34 34 35 36 36 36 36 35 33 32 31 30 30 30 30 31 32 34 36
29 29 29 29 28 28 29 29 29 28 27 27 27 27 26 26 26 26 26 27 28 28 29 30 30 31 32 32 33 33 32 32 31 30 30 29 29 29 29 29 30 32
30 30 30 29 29 29 29 28 28 27 26 25 25 25 24 24 24 25 25 25 26 26 26 27 27 27 28 29 29 30 30 30 30 29 29 28 28 28 28 28 28 28
30 30 29 29 29 29 28 27 27 26 25 24 23 23 22 22 23 24 24 25 25 25 25 25 25 25 25 25 26 27 28 29 29 29 28 28 28 28 29 29 29 28
29 29 29 29 29 28 27 27 26 25 24 23 22 22 21 21 22 23 23 23 24 24 24 24 24 24 24 24 24 24 24 25 26 28 28 29 28 28 29 29 30 29
29 29 28 29 28 27 26 26 25 24 23 22 21 21 21 20 21 21 22 22 22 23 23 23 23 23 23 23 23 23 22 22 23 24 26 27 28 28 28 28 29 29
29 29 29 29 28 27 26 26 25 23 22 21 20 20 20 20 21 21 21 21 22 22 23 23 23 23 23 22 22 22 22 22 22 22 23 24 25 26 27 27 28 28
29 29 30 29 28 26 25 25 24 23 21 21 20 20 20 20 21 21 22 22 22 22 23 23 23 23 22 22 22 23 23 22 22 22 22 22 23 23 24 24 26 27
29 30 30 29 27 26 25 24 23 22 22 21 20 19 20 20 21 22 23 23 23 23 23 23 22 22 22 21 21 22 22 23 23 23 23 22 22 22 22 22 23 24
Wind_Direction
289 286 286 288 288 289 291 291 289 286 283 281 278 277 276 276 276 276 276 275 273 273 272 271 271 271 271 272 273 275 276 276 276 275 272 271 270 272 274 276 277 276
291 287 283 283 285 288 291 292 291 288 284 282 280 278 277 276 277 277 277 278 277 276 274 272 271 270 270 270 270 271 273 274 276 276 275 273 271 270 269 270 272 273
294 293 290 288 288 289 291 292 291 289 287 284 283 282 282 281 280 280 279 279 279 278 276 275 275 275 274 273 272 271 271 271 272 274 275 275 274 273 271 269 268 268
296 296 295 294 293 293 293 293 292 291 289 287 286 285 285 284 284 283 282 282 281 280 279 278 277 277 277 276 276 275 273 272 271 271 272 272 273 273 272 271 269 267
297 297 296 296 295 295 294 293 292 291 290 288 287 286 285 284 284 284 283 282 282 281 280 280 279 278 278 277 277 276 275 274 273 271 270 270 270 270 270 270 269 268
297 296 296 295 294 293 292 291 290 290 289 289 288 287 286 285 284 283 282 281 281 280 279 279 278 278 277 276 276 275 274 274 273 272 271 269 268 268 268 268 267 266
296 296 295 294 293 292 292 291 291 290 290 289 289 289 288 287 286 284 283 282 281 280 279 278 277 276 275 274 273 273 272 271 271 270 270 269 268 267 267 266 266 265
295 295 294 294 294 294 294 293 293 293 292 292 292 291 291 290 290 289 288 287 286 284 282 280 278 276 275 274 273 271 270 269 268 268 267 267 267 266 266 265 265 264
296 296 296 296 296 296 296 296 296 295 295 295 295 295 295 294 294 294 293 292 292 291 289 287 284 281 278 276 274 273 271 269 267 267 266 265 264 264 264 264 264 264
299 299 299 299 299 298 298 298 298 298 299 299 299 300 300 300 300 300 299 298 297 296 294 293 291 288 285 282 278 276 273 271 269 267 266 265 264 263 262 262 262 262
300 300 299 299 298 298 298 298 299 299 300 301 302 303 304 304 304 304 304 303 302 301 300 298 296 294 292 289 285 281 278 275 272 270 268 266 264 264 263 262 261 261
298 298 298 297 297 296 296 297 297 298 299 301 302 304 305 306 306 306 305 304 303 302 302 301 300 298 295 293 291 288 284 280 276 273 270 268 266 264 263 263 262 261
297 296 296 295 295 295 295 296 296 298 299 301 302 303 304 304 303 303 302 302 301 301 300 300 299 299 298 296 294 292 289 285 280 276 273 270 268 266 265 263 263 262
296 296 296 295 295 295 295 295 295 296 298 299 300 300 300 300 299 298 297 297 297 297 297 297 296 296 296 296 295 294 292 288 282 278 275 272 270 268 266 264 263 262
295 296 297 297 296 295 295 294 295 296 297 298 299 300 300 299 298 297 296 295 294 294 293 293 294 294 294 294 294 294 294 291 285 279 276 274 272 270 267 265 264 262
294 296 297 297 296 296 296 296 297 298 299 300 301 301 301 301 301 300 299 298 297 295 293 292 291 291 292 292 292 293 294 293 288 281 278 275 274 273 270 268 266 263
292 295 296 295 295 296 297 298 299 300 300 301 303 303 304 304 304 303 303 302 300 298 296 294 292 291 290 291 291 292 292 291 287 284 281 278 276 275 274 273 270 267
291 293 293 294 295 297 298 299 300 300 301 303 304 305 305 306 306 306 306 306 305 304 302 300 298 296 293 292 291 292 292 291 288 285 284 282 280 278 276 275 273 271
291 291 293 295 297 298 298 299 300 300 302 304 305 306 306 308 309 309 310 310 311 311 310 308 306 303 300 297 295 294 294 292 290 288 286 285 283 282 279 276 275 274
293 292 294 296 298 298 299 299 299 300 302 303 304 306 308 310 311 312 313 315 317 318 318 317 316 313 309 304 299 296 295 294 292 290 287 285 284 283 282 281 279 278
295 294 295 297 298 299 298 298 299 300 301 302 305 307 309 311 313 315 317 319 320 321 322 323 324 323 321 316 310 303 298 294 292 290 288 286 284 282 281 282 282 282
296 295 297 298 299 298 297 297 298 299 300 302 304 306 307 311 314 316 318 320 321 321 322 324 326 327 327 326 323 318 311 304 297 293 289 286 284 282 281 281 281 282
297 298 299 299 299 297 296 296 297 297 299 301 302 304 306 310 314 316 317 318 319 320 321 322 324 325 326 327 327 327 325 321 314 306 298 292 287 284 282 281 280 280
300 300 300 300 298 296 294 294 295 296 298 300 301 303 306 309 312 314 314 315 316 317 319 320 322 323 324 325 326 326 327 327 325 322 316 308 301 293 287 283 280 279
302 301 301 300 297 294 293 294 295 295 297 299 300 302 305 307 310 311 311 312 314 315 317 318 319 321 322 324 324 325 325 325 325 325 323 320 316 310 302 292 284 280
301 301 300 299 295 293 293 293 293 294 296 298 299 301 303 305 307 308 309 310 312 314 315 316 317 318 320 321 322 323 323 324 324 324 322 321 320 318 314 307 298 289
Height
5864 5863 5862 5861 5860 5859 5858 5857 5856 5855 5854 5853 5852 5851 5850 5849 5847 5846 5845 5845 5844 5843 5842 5842 5841 5840 5839 5838 5837 5837 5836 5836 5836 5835 5834 5833 5833 5833 5834 5834 5834 5834
5862 5861 5859 5858 5857 5855 5854 5853 5853 5852 5851 5850 5849 5848 5847 5846 5844 5843 5842 5841 5840 5839 5838 5837 5837 5836 5836 5835 5835 5834 5833 5833 5832 5831 5831 5830 5830 5830 5830 5831 5831 5831
5859 5857 5856 5855 5853 5852 5851 5849 5848 5847 5846 5846 5845 5844 5843 5841 5840 5839 5838 5837 5835 5834 5833 5832 5832 5832 5831 5831 5831 5830 5830 5829 5828 5827 5827 5826 5826 5826 5826 5827 5827 5827
5855 5853 5852 5851 5850 5848 5847 5845 5844 5843 5842 5841 5840 5839 5837 5836 5835 5834 5833 5832 5831 5829 5828 5827 5826 5826 5826 5825 5825 5824 5824 5824 5824 5823 5823 5822 5822 5822 5822 5822 5822 5823
5851 5849 5848 5846 5845 5844 5842 5841 5840 5838 5837 5836 5835 5833 5832 5830 5829 5828 5827 5826 5825 5824 5823 5822 5821 5820 5820 5820 5819 5819 5818 5818 5818 5818 5818 5818 5818 5818 5818 5817 5818 5818
5847 5845 5843 5842 5840 5839 5837 5836 5835 5833 5832 5830 5829 5827 5826 5824 5823 5822 5821 5820 5819 5818 5817 5816 5815 5814 5814 5814 5813 5813 5813 5813 5813 5813 5813 5813 5813 5814 5813 5813 5813 5814
5843 5841 5839 5837 5836 5834 5832 5831 5829 5828 5826 5825 5823 5821 5820 5818 5817 5816 5815 5814 5813 5812 5811 5810 5809 5808 5807 5807 5807 5807 5807 5807 5807 5807 5807 5807 5808 5808 5808 5809 5808 5808
5840 5837 5835 5833 5831 5829 5827 5825 5824 5822 5820 5818 5817 5815 5814 5812 5811 5809 5808 5807 5806 5805 5804 5803 5803 5802 5801 5801 5801 5801 5801 5801 5801 5801 5801 5802 5802 5802 5803 5803 5803 5803
5835 5833 5830 5828 5826 5824 5821 5819 5817 5816 5814 5812 5810 5809 5807 5806 5804 5803 5801 5800 5799 5798 5796 5796 5795 5795 5795 5794 5794 5794 5794 5794 5795 5794 5795 5795 5796 5796 5797 5797 5797 5797
5830 5827 5825 5823 5820 5818 5816 5814 5812 5810 5808 5806 5804 5803 5802 5800 5799 5797 5796 5794 5793 5791 5790 5789 5788 5787 5787 5787 5787 5787 5787 5787 5788 5788 5788 5788 5788 5789 5790 5791 5791 5791
5825 5823 5820 5818 5816 5814 5812 5810 5808 5806 5804 5802 5800 5798 5797 5795 5793 5792 5790 5789 5787 5786 5785 5783 5782 5781 5780 5780 5779 5780 5780 5780 5780 5781 5781 5781 5781 5782 5783 5784 5785 5785
5822 5819 5817 5815 5813 5810 5808 5806 5804 5802 5800 5798 5796 5795 5793 5791 5789 5787 5785 5784 5782 5781 5779 5778 5777 5776 5774 5774 5773 5772 5772 5773 5773 5773 5773 5773 5774 5775 5776 5776 5777 5778
5818 5816 5813 5811 5809 5807 5805 5803 5801 5799 5797 5796 5794 5792 5790 5788 5786 5784 5782 5780 5778 5776 5774 5773 5772 5771 5769 5768 5767 5767 5766 5766 5766 5766 5766 5765 5766 5767 5768 5769 5770 5771
5814 5812 5810 5808 5805 5803 5801 5800 5798 5796 5795 5793 5791 5790 5788 5785 5783 5781 5778 5776 5774 5772 5770 5768 5767 5766 5765 5763 5762 5761 5760 5760 5760 5759 5759 5758 5758 5759 5760 5761 5762 5763
5809 5808 5806 5803 5801 5799 5798 5796 5795 5794 5792 5790 5788 5786 5784 5781 5779 5777 5774 5772 5770 5768 5766 5764 5762 5760 5759 5758 5757 5756 5754 5754 5754 5753 5753 5753 5752 5752 5752 5753 5754 5755
5806 5804 5802 5800 5798 5796 5794 5793 5792 5790 5789 5787 5784 5782 5780 5777 5775 5772 5770 5768 5766 5764 5761 5759 5757 5755 5754 5753 5752 5751 5749 5748 5748 5748 5748 5748 5747 5746 5746 5746 5747 5748
5802 5800 5798 5796 5794 5793 5791 5790 5788 5786 5785 5782 5780 5778 5776 5773 5771 5768 5766 5764 5761 5759 5757 5755 5753 5751 5749 5748 5746 5746 5744 5743 5743 5742 5742 5742 5742 5742 5741 5741 5741 5741
5798 5796 5794 5792 5791 5789 5787 5785 5784 5782 5780 5778 5776 5774 5772 5769 5767 5765 5762 5760 5757 5755 5753 5751 5749 5747 5745 5743 5742 5741 5740 5739 5738 5738 5737 5737 5737 5737 5736 5736 5735 5736
5793 5792 5789 5788 5786 5785 5783 5781 5779 5778 5776 5774 5772 5770 5768 5766 5763 5761 5759 5756 5754 5752 5749 5747 5745 5743 5741 5739 5738 5737 5735 5735 5734 5733 5733 5732 5732 5732 5731 5731 5731 5731
5788 5786 5785 5783 5782 5780 5778 5777 5775 5773 5771 5770 5768 5766 5764 5762 5760 5758 5755 5753 5751 5749 5746 5744 5742 5740 5738 5736 5734 5733 5732 5731 5730 5729 5729 5728 5728 5727 5726 5726 5726 5726
5783 5782 5780 5779 5777 5775 5774 5772 5771 5769 5767 5766 5764 5762 5760 5758 5756 5754 5752 5750 5748 5746 5744 5742 5740 5737 5735 5733 5731 5729 5728 5727 5726 5725 5725 5724 5724 5723 5722 5721 5721 5722
5779 5777 5776 5775 5773 5771 5769 5768 5767 5765 5763 5762 5760 5758 5757 5755 5753 5751 5749 5747 5745 5743 5741 5739 5737 5735 5733 5731 5729 5727 5725 5723 5722 5721 5720 5720 5719 5718 5718 5717 5717 5717
5774 5773 5772 5770 5769 5767 5765 5764 5763 5761 5760 5758 5757 5755 5753 5752 5750 5749 5747 5745 5743 5741 5739 5737 5735 5733 5731 5729 5727 5725 5723 5721 5719 5717 5716 5715 5714 5714 5713 5713 5712 5713
5771 5769 5768 5766 5765 5763 5762 5760 5759 5758 5756 5755 5753 5752 5750 5749 5747 5746 5744 5742 5741 5739 5737 5735 5733 5731 5729 5727 5725 5723 5721 5719 5717 5715 5713 5712 5710 5709 5709 5708 5708 5708
5767 5765 5764 5762 5761 5760 5758 5757 5755 5754 5753 5751 5750 5748 5747 5745 5744 5742 5741 5739 5738 5736 5734 5732 5731 5729 5727 5725 5723 5721 5719 5717 5715 5713 5711 5709 5708 5706 5705 5704 5703 5703
5763 5761 5760 5759 5757 5756 5755 5753 5752 5751 5749 5748 5747 5745 5743 5742 5741 5739 5738 5736 5735 5733 5731 5730 5728 5726 5724 5722 5721 5719 5716 5715 5713 5711 5709 5707 5705 5704 5702 5700 5699 5698